PTGAL SBME-SBCP

Flight info

Callsign PTGAL
Flight time 0h 17m
Altitude 3000
Route AWAKE
Aircraft BE58/L-SDFGRY/C

Departure

Time 2026-05-06 01:04
Airport Macaé Benedito Lacerda Airport (SBME)

Arrival

Time 2026-05-06 01:21
Airport Bartolomeu Lisandro Airport (SBCP)
Time Latitude Longitude Altitude Speed Heading
2026-05-06 00:49 -22.34397 -41.76510 22 ft 0 kts 122°
2026-05-06 00:59 -22.34400 -41.76507 21 ft 2 kts 151°
2026-05-06 00:59 -22.34406 -41.76507 21 ft 2 kts 212°
2026-05-06 00:59 -22.34387 -41.76529 22 ft 5 kts 304°
2026-05-06 00:59 -22.34429 -41.76574 26 ft 15 kts 207°
2026-05-06 01:00 -22.34532 -41.76646 21 ft 21 kts 213°
2026-05-06 01:00 -22.34545 -41.76718 23 ft 2 kts 303°
2026-05-06 01:00 -22.34544 -41.76720 23 ft 2 kts 303°
2026-05-06 01:01 -22.34511 -41.76776 22 ft 15 kts 303°
2026-05-06 01:01 -22.34574 -41.76863 22 ft 20 kts 206°
2026-05-06 01:01 -22.34715 -41.76948 20 ft 26 kts 210°
2026-05-06 01:01 -22.34750 -41.76964 20 ft 6 kts
2026-05-06 01:02 -22.34711 -41.76946 19 ft 0 kts 24°
2026-05-06 01:03 -22.34703 -41.76942 20 ft 14 kts 27°
2026-05-06 01:03 -22.34334 -41.76713 27 ft 100 kts 30°
2026-05-06 01:03 -22.33597 -41.76294 213 ft 130 kts 35°
2026-05-06 01:03 -22.32785 -41.75735 485 ft 146 kts 38°
2026-05-06 01:04 -22.31831 -41.75264 787 ft 154 kts 28°
2026-05-06 01:04 -22.30856 -41.74761 1078 ft 156 kts 30°
2026-05-06 01:04 -22.29812 -41.74434 1378 ft 160 kts
2026-05-06 01:04 -22.28695 -41.74378 1678 ft 162 kts
2026-05-06 01:05 -22.27586 -41.74327 1979 ft 162 kts
2026-05-06 01:05 -22.26483 -41.74162 2273 ft 160 kts 24°
2026-05-06 01:05 -22.25501 -41.73579 2570 ft 162 kts 32°
2026-05-06 01:05 -22.24686 -41.72735 2864 ft 163 kts 48°
2026-05-06 01:06 -22.23908 -41.71775 2928 ft 178 kts 47°
2026-05-06 01:06 -22.23098 -41.70758 2928 ft 178 kts 47°
2026-05-06 01:06 -22.22292 -41.69747 2931 ft 178 kts 48°
2026-05-06 01:06 -22.21480 -41.68725 2930 ft 180 kts 47°
2026-05-06 01:07 -22.20664 -41.67705 2935 ft 179 kts 48°
2026-05-06 01:07 -22.19830 -41.66698 2934 ft 180 kts 48°
2026-05-06 01:07 -22.18978 -41.65701 2937 ft 181 kts 47°
2026-05-06 01:07 -22.18120 -41.64702 2942 ft 182 kts 47°
2026-05-06 01:08 -22.17201 -41.63763 2940 ft 182 kts 40°
2026-05-06 01:08 -22.16127 -41.63092 2943 ft 182 kts 25°
2026-05-06 01:08 -22.14964 -41.62555 2941 ft 181 kts 25°
2026-05-06 01:08 -22.13804 -41.62025 2941 ft 181 kts 25°
2026-05-06 01:09 -22.12646 -41.61497 2942 ft 180 kts 24°
2026-05-06 01:09 -22.11498 -41.60974 2943 ft 178 kts 25°
2026-05-06 01:09 -22.10347 -41.60459 2943 ft 178 kts 24°
2026-05-06 01:09 -22.09205 -41.59935 2937 ft 178 kts 25°
2026-05-06 01:10 -22.08074 -41.59430 2942 ft 178 kts 24°
2026-05-06 01:10 -22.06927 -41.58924 2943 ft 178 kts 24°
2026-05-06 01:10 -22.05776 -41.58412 2945 ft 179 kts 24°
2026-05-06 01:10 -22.04621 -41.57898 2942 ft 179 kts 24°
2026-05-06 01:11 -22.03468 -41.57384 2946 ft 180 kts 24°
2026-05-06 01:11 -22.02303 -41.56866 2954 ft 182 kts 24°
2026-05-06 01:11 -22.01127 -41.56343 2953 ft 182 kts 24°
2026-05-06 01:11 -21.99954 -41.55821 2955 ft 182 kts 24°
2026-05-06 01:12 -21.98783 -41.55299 2951 ft 182 kts 23°
2026-05-06 01:12 -21.97612 -41.54780 2953 ft 181 kts 24°
2026-05-06 01:12 -21.96443 -41.54261 2953 ft 181 kts 24°
2026-05-06 01:12 -21.95291 -41.53746 2951 ft 179 kts 24°
2026-05-06 01:13 -21.94146 -41.53237 2948 ft 177 kts 24°
2026-05-06 01:13 -21.93018 -41.52737 2945 ft 178 kts 23°
2026-05-06 01:13 -21.91880 -41.52233 2939 ft 175 kts 24°
2026-05-06 01:13 -21.90755 -41.51731 2940 ft 174 kts 24°
2026-05-06 01:14 -21.88623 -41.50784 2936 ft 158 kts 24°
2026-05-06 01:14 -21.87626 -41.50319 2939 ft 155 kts 30°
2026-05-06 01:14 -21.86823 -41.49521 2767 ft 159 kts 49°
2026-05-06 01:15 -21.86070 -41.48648 2597 ft 158 kts 47°
2026-05-06 01:15 -21.85324 -41.47801 2545 ft 151 kts 46°
2026-05-06 01:15 -21.84619 -41.47002 2534 ft 143 kts 47°
2026-05-06 01:15 -21.83958 -41.46248 2543 ft 135 kts 47°
2026-05-06 01:16 -21.83321 -41.45522 2541 ft 133 kts 48°
2026-05-06 01:16 -21.82690 -41.44802 2537 ft 132 kts 47°
2026-05-06 01:16 -21.82055 -41.44076 2544 ft 135 kts 48°
2026-05-06 01:16 -21.81398 -41.43329 2491 ft 143 kts 47°
2026-05-06 01:17 -21.80706 -41.42537 2341 ft 151 kts 46°
2026-05-06 01:17 -21.79975 -41.41706 2181 ft 152 kts 47°
2026-05-06 01:17 -21.79257 -41.40888 2010 ft 149 kts 48°
2026-05-06 01:17 -21.78546 -41.40077 1833 ft 148 kts 48°
2026-05-06 01:18 -21.77846 -41.39280 1704 ft 144 kts 48°
2026-05-06 01:18 -21.77173 -41.38516 1691 ft 137 kts 47°
2026-05-06 01:18 -21.76529 -41.37783 1684 ft 133 kts 48°
2026-05-06 01:18 -21.75896 -41.37063 1688 ft 132 kts 47°
2026-05-06 01:19 -21.75258 -41.36336 1560 ft 128 kts 47°
2026-05-06 01:19 -21.74668 -41.35665 1380 ft 122 kts 47°
2026-05-06 01:19 -21.74085 -41.35001 1223 ft 122 kts 47°
2026-05-06 01:19 -21.73500 -41.34336 1035 ft 123 kts 48°
2026-05-06 01:20 -21.72921 -41.33677 864 ft 119 kts 49°
2026-05-06 01:20 -21.72373 -41.33054 701 ft 115 kts 49°
2026-05-06 01:20 -21.71818 -41.32423 539 ft 117 kts 51°
2026-05-06 01:20 -21.71251 -41.31788 416 ft 118 kts 52°
2026-05-06 01:21 -21.70700 -41.31151 248 ft 114 kts 49°
2026-05-06 01:21 -21.70167 -41.30545 118 ft 109 kts 51°
2026-05-06 01:21 -21.69693 -41.30002 99 ft 79 kts 45°
2026-05-06 01:21 -21.69504 -41.29774 97 ft 15 kts 61°
2026-05-06 01:22 -21.69550 -41.29836 98 ft 33 kts 213°
2026-05-06 01:22 -21.69770 -41.30083 100 ft 55 kts 228°
2026-05-06 01:22 -21.70033 -41.30387 100 ft 50 kts 226°
2026-05-06 01:22 -21.70184 -41.30562 98 ft 31 kts 227°
2026-05-06 01:23 -21.70277 -41.30684 95 ft 10 kts 275°
2026-05-06 01:23 -21.70220 -41.30744 98 ft 10 kts 329°
2026-05-06 01:23 -21.70176 -41.30761 98 ft 2 kts 317°
2026-05-06 01:23 -21.70169 -41.30768 98 ft 1 kts 314°
2026-05-06 01:24 -21.70164 -41.30773 98 ft 0 kts 317°